Weather History for Jacksonville Craig, FL

Change the Weather History Date:

Wednesday, October 26, 2011

  Actual Average Record
Temperature  
Mean Temperature 70 °F -  
Max Temperature 78 °F 76 °F 90 °F (2010)
Min Temperature 62 °F 59 °F 46 °F (2005)
Cooling Degree Days 5    
Growing Degree Days 20 (Base 50)    
Moisture  
Dew Point 62 °F    
Average Humidity 77    
Maximum Humidity 94    
Minimum Humidity 58    
Precipitation  
Precipitation 0.00 in - - ()
Sea Level Pressure  
Sea Level Pressure 30.06 in    
Wind  
Wind Speed 5 mph (NE)    
Max Wind Speed 12 mph    
Max Gust Speed 18 mph    
Visibility 9 miles    
Events      
Averages and records for this station are not official NWS values.
T = Trace of Precipitation, MM = Missing Value Source: NWS Daily Summary

Daily Weather History Graph

Daily Weather History Graph

Search for Another Location

Airport:

Trip Planner

Search our weather history database for the weather conditions in past years. The results will help you decide how hot, cold, wet, or windy it might be!

Date:

Astronomy

Oct. 26, 2011 Rise Set
Actual Time 7:35 AM EDT 6:43 PM EDT
Civil Twilight 7:11 AM EDT 7:08 PM EDT
Nautical Twilight 6:42 AM EDT 7:36 PM EDT
Astronomical Twilight 6:14 AM EDT 8:04 PM EDT
Moon 7:18 AM EDT (10/26) 6:30 PM EDT (10/26)
Length of Visible Light 11h 57m
Length of Day
11h 08m
Waning Crescent, 0% of the Moon is Illuminated
Oct 26
Waning Crescent
Oct 26
New
Nov 2
First Quarter
Nov 10
Full
Nov 18
Last Quarter

Hourly Weather History & Observations

Time (EDT) Temp. Dew Point Humidity Pressure Visibility Wind Dir Wind Speed Gust Speed Precip Events Conditions
12:53 AM 64.9 °F 62.1 °F 90% 30.14 in 10.0 mi North 3.5 mph - N/A   Mostly Cloudy
1:53 AM 64.0 °F 61.0 °F 90% 30.13 in 9.0 mi Calm Calm - N/A   Mostly Cloudy
2:53 AM 66.9 °F 63.0 °F 87% 30.12 in 10.0 mi North 5.8 mph - N/A   Overcast
3:53 AM 69.1 °F 63.0 °F 81% 30.11 in 10.0 mi NNE 5.8 mph - N/A   Overcast
4:53 AM 70.0 °F 62.1 °F 76% 30.10 in 10.0 mi NE 6.9 mph - N/A   Overcast
5:53 AM 70.0 °F 62.1 °F 76% 30.09 in 10.0 mi NE 5.8 mph - N/A   Overcast
6:53 AM 70.0 °F 62.1 °F 76% 30.10 in 10.0 mi NNE 4.6 mph - N/A   Mostly Cloudy
9:53 AM 70.0 °F 64.9 °F 84% 30.13 in 10.0 mi NNW 4.6 mph - N/A   Overcast
11:53 AM 78.1 °F 62.1 °F 58% 30.12 in 10.0 mi NNE 9.2 mph 18.4 mph N/A   Clear
12:53 PM 77.0 °F 62.1 °F 60% 30.10 in 10.0 mi NE 11.5 mph - N/A   Overcast
1:53 PM 77.0 °F 62.1 °F 60% 30.07 in 10.0 mi ENE 11.5 mph - N/A   Overcast
2:53 PM 77.0 °F 62.1 °F 60% 30.05 in 10.0 mi ENE 9.2 mph - N/A   Overcast
3:53 PM 75.9 °F 62.1 °F 62% 30.03 in 10.0 mi ENE 6.9 mph - N/A   Overcast
4:53 PM 75.0 °F 62.1 °F 64% 30.02 in 10.0 mi NE 8.1 mph - N/A   Overcast
5:53 PM 73.9 °F 63.0 °F 68% 30.01 in 10.0 mi NE 4.6 mph - N/A   Overcast
6:53 PM 73.0 °F 64.0 °F 73% 30.01 in 10.0 mi NE 4.6 mph - N/A   Overcast
8:53 PM 68.0 °F 64.0 °F 87% 30.01 in 10.0 mi Calm Calm - N/A   Clear
9:53 PM 66.0 °F 62.1 °F 87% 30.02 in 10.0 mi Calm Calm - N/A   Mostly Cloudy
10:53 PM 64.0 °F 60.1 °F 87% 30.02 in 10.0 mi Calm Calm - N/A   Clear
11:19 PM 62.6 °F 59.0 °F 88% 30.01 in 1.5 mi Calm Calm - N/A   Scattered Clouds
11:30 PM 62.6 °F 60.8 °F 94% 30.01 in 4.0 mi Calm Calm - N/A   Mostly Cloudy
11:53 PM 62.1 °F 60.1 °F 93% 30.01 in 10.0 mi Calm Calm - N/A   Overcast